Tracking 30995 objects as of 5-Jul-2025
HD Live streaming from Space Station
objects crossing your sky now

COSMOS 970 DEB

Track COSMOS 970 DEB now!
10-day predictions


NORAD ID: 12942
Int'l Code: 1977-121AZ
Perigee: 1,046.3 km
Apogee: 1,203.8 km
Inclination: 65.8 °
Period: 107.6 minutes
Semi major axis: 7496 km
RCS: 0.0606 m2 (small)
Launch date: December 21, 1977
Source: Commonwealth of Independent States (former USSR) (CIS)
Launch site: TYURATAM MISSILE AND SPACE COMPLEX (TTMTR)

Note: This is SATELLITE DEBRIS
Your satellite tracking list
Your tracking list is empty




NASA's NSSDC Master Catalog

Two Line Element Set (TLE):
1 12942U 77121AZ  25186.55223022 -.00000116  00000-0 -78958-4 0  9990
2 12942  65.8278 242.7769 0105089 359.6197 109.3241 13.37684811147268
Source of the keplerian elements: AFSPC